time, Switch, Flow(0), Analog(2)
yyyy/mm/dd HH:MM:SS.fff, True=FILTERED|False=TOTAL, L/min, V
2023/06/11 02:00:00.566, True, 5.054, 0.142672
2023/06/11 02:00:01.062, True, 4.718, 0.143130
2023/06/11 02:00:01.566, True, 4.974, 0.141680
2023/06/11 02:00:02.062, True, 5.054, 0.142596
2023/06/11 02:00:02.566, True, 4.642, 0.143206
2023/06/11 02:00:03.070, True, 4.642, 0.140841
2023/06/11 02:00:03.566, True, 4.043, 0.143664
2023/06/11 02:00:04.070, True, 2.654, 0.144045
2023/06/11 02:00:04.574, True, 1.657, 0.146029
2023/06/11 02:00:05.070, True, 1.011, 0.139925
2023/06/11 02:00:05.574, True, 0.996, 0.140917
2023/06/11 02:00:06.078, True, 0.663, 0.144121
2023/06/11 02:00:06.574, True, 0.674, 0.139239
2023/06/11 02:00:07.078, True, 0.995, 0.140536
2023/06/11 02:00:07.582, True, 0.663, 0.144045
2023/06/11 02:00:08.086, True, 0.663, 0.142901
2023/06/11 02:00:08.582, True, 0.674, 0.141527
2023/06/11 02:00:09.086, True, 0.995, 0.142901
2023/06/11 02:00:09.590, True, 0.663, 0.140459
2023/06/11 02:00:10.086, True, 0.674, 0.141604
2023/06/11 02:00:10.590, True, 0.663, 0.140688
2023/06/11 02:00:11.094, True, 0.663, 0.141527
2023/06/11 02:00:11.598, True, 0.663, 0.143893
2023/06/11 02:00:12.094, True, 1.011, 0.141527
2023/06/11 02:00:12.598, True, 0.664, 0.143130
2023/06/11 02:00:13.102, True, 0.662, 0.140307
2023/06/11 02:00:13.598, True, 0.674, 0.141985
2023/06/11 02:00:14.102, True, 0.663, 0.141527
2023/06/11 02:00:14.598, True, 1.013, 0.140459
2023/06/11 02:00:15.102, True, 0.662, 0.142824
2023/06/11 02:00:15.606, True, 0.663, 0.142596
2023/06/11 02:00:16.102, True, 0.674, 0.140612
2023/06/11 02:00:16.606, True, 0.663, 0.141222
2023/06/11 02:00:17.110, True, 0.996, 0.140764
2023/06/11 02:00:17.606, True, 0.673, 0.141680
2023/06/11 02:00:18.110, True, 0.663, 0.142290
2023/06/11 02:00:18.614, True, 0.663, 0.140536
2023/06/11 02:00:19.118, True, 0.664, 0.139696
2023/06/11 02:00:19.614, True, 0.673, 0.141680
2023/06/11 02:00:20.118, True, 0.663, 0.142519
2023/06/11 02:00:20.614, True, 1.011, 0.143511
2023/06/11 02:00:21.118, True, 0.663, 0.141527
2023/06/11 02:00:21.622, True, 0.663, 0.141680
2023/06/11 02:00:22.126, True, 0.663, 0.142519
2023/06/11 02:00:22.622, True, 0.674, 0.143435
2023/06/11 02:00:23.126, True, 0.995, 0.141985
2023/06/11 02:00:23.630, True, 0.664, 0.143053
2023/06/11 02:00:24.126, True, 0.673, 0.141451
2023/06/11 02:00:24.630, True, 0.663, 0.141680
2023/06/11 02:00:25.134, True, 0.663, 0.139773
2023/06/11 02:00:25.630, True, 0.674, 0.142748
2023/06/11 02:00:26.134, True, 0.663, 0.141833
2023/06/11 02:00:26.638, True, 0.663, 0.139315
2023/06/11 02:00:27.134, True, 1.011, 0.141299
2023/06/11 02:00:27.638, True, 0.663, 0.140993
2023/06/11 02:00:28.142, True, 0.664, 0.144274
2023/06/11 02:00:28.638, True, 0.673, 0.142138
2023/06/11 02:00:29.142, True, 0.663, 0.142138
2023/06/11 02:00:29.645, True, 0.664, 0.142061
2023/06/11 02:00:30.142, True, 0.673, 0.142596
2023/06/11 02:00:30.646, True, 0.663, 0.138781
2023/06/11 02:00:31.142, True, 0.674, 0.142977
2023/06/11 02:00:31.646, True, 0.664, 0.143969
2023/06/11 02:00:32.150, True, 0.994, 0.141909
2023/06/11 02:00:32.654, True, 0.663, 0.142596
2023/06/11 02:00:33.150, True, 0.674, 0.142672
2023/06/11 02:00:33.653, True, 0.663, 0.140917
2023/06/11 02:00:34.150, True, 0.675, 0.142367
2023/06/11 02:00:34.654, True, 0.662, 0.142519
2023/06/11 02:00:35.158, True, 0.663, 0.139467
2023/06/11 02:00:35.662, True, 0.663, 0.141604
2023/06/11 02:00:36.158, True, 0.674, 0.140459
2023/06/11 02:00:36.662, True, 0.663, 0.141604
2023/06/11 02:00:37.166, True, 0.663, 0.143511
2023/06/11 02:00:37.662, True, 1.011, 0.145647
2023/06/11 02:00:38.166, True, 0.663, 0.140230
2023/06/11 02:00:38.670, True, 0.663, 0.140612
2023/06/11 02:00:39.166, True, 0.674, 0.142214
2023/06/11 02:00:39.670, True, 0.663, 0.141222
2023/06/11 02:00:40.166, True, 0.674, 0.139315
2023/06/11 02:00:40.670, True, 0.995, 0.141375
2023/06/11 02:00:41.174, True, 0.663, 0.141680
2023/06/11 02:00:41.670, True, 0.674, 0.149996
2023/06/11 02:00:42.174, True, 0.663, 0.142672
2023/06/11 02:00:42.678, True, 0.663, 0.141070
2023/06/11 02:00:43.182, True, 0.995, 0.142672
2023/06/11 02:00:43.678, True, 0.674, 0.141222
2023/06/11 02:00:44.182, True, 0.663, 0.140459
2023/06/11 02:00:44.686, True, 0.663, 0.142672
2023/06/11 02:00:45.190, True, 0.663, 0.140917
2023/06/11 02:00:45.685, True, 0.674, 0.142596
2023/06/11 02:00:46.190, True, 0.995, 0.141604
2023/06/11 02:00:46.694, True, 0.663, 0.141527
2023/06/11 02:00:47.189, True, 0.674, 0.141909
2023/06/11 02:00:47.694, True, 0.663, 0.141375
2023/06/11 02:00:48.198, True, 0.663, 0.142748
2023/06/11 02:00:48.693, True, 1.011, 0.142443
2023/06/11 02:00:49.198, True, 0.663, 0.143053
2023/06/11 02:00:49.702, True, 0.663, 0.139239
2023/06/11 02:00:50.198, True, 0.675, 0.140764
2023/06/11 02:00:50.702, True, 0.662, 0.141833
2023/06/11 02:00:51.206, True, 0.663, 0.140993
2023/06/11 02:00:51.702, True, 1.011, 0.141222
2023/06/11 02:00:52.206, True, 0.663, 0.143206
2023/06/11 02:00:52.710, True, 0.663, 0.142367
2023/06/11 02:00:53.206, True, 0.674, 0.143282
2023/06/11 02:00:53.710, True, 0.664, 0.142672
2023/06/11 02:00:54.214, True, 0.994, 0.141146
2023/06/11 02:00:54.710, True, 0.674, 0.141527
2023/06/11 02:00:55.214, True, 0.664, 0.141070
2023/06/11 02:00:55.718, True, 0.662, 0.143740
2023/06/11 02:00:56.214, True, 0.674, 0.143587
2023/06/11 02:00:56.718, True, 0.664, 0.141756
2023/06/11 02:00:57.222, True, 0.664, 0.138857
2023/06/11 02:00:57.718, True, 0.673, 0.142519
2023/06/11 02:00:58.221, True, 0.663, 0.141680
2023/06/11 02:00:58.726, True, 0.996, 0.140383
2023/06/11 02:00:59.222, True, 0.674, 0.140764
2023/06/11 02:00:59.726, True, 0.662, 0.142138
2023/06/11 02:01:00.230, True, 0.663, 0.141375
2023/06/11 02:01:00.734, True, 0.663, 0.140002
2023/06/11 02:01:01.229, True, 0.675, 0.142061
2023/06/11 02:01:01.734, True, 0.662, 0.143130
2023/06/11 02:01:02.238, True, 0.663, 0.140078
2023/06/11 02:01:02.734, True, 1.012, 0.141146
2023/06/11 02:01:03.238, True, 0.663, 0.143893
2023/06/11 02:01:03.742, True, 0.662, 0.139773
2023/06/11 02:01:04.246, True, 0.663, 0.140917
2023/06/11 02:01:04.742, True, 0.673, 0.142138
2023/06/11 02:01:05.246, True, 0.664, 0.142824
2023/06/11 02:01:05.750, True, 0.663, 0.142443
2023/06/11 02:01:06.246, True, 0.674, 0.142214
2023/06/11 02:01:06.750, True, 0.663, 0.141146
2023/06/11 02:01:07.246, True, 1.011, 0.143130
2023/06/11 02:01:07.750, True, 0.663, 0.140917
2023/06/11 02:01:08.254, True, 0.663, 0.141985
2023/06/11 02:01:08.750, True, 0.674, 0.143206
2023/06/11 02:01:09.254, True, 0.663, 0.142443
2023/06/11 02:01:09.758, True, 0.663, 0.142596
2023/06/11 02:01:10.254, True, 0.674, 0.141909
2023/06/11 02:01:10.758, True, 0.663, 0.142901
2023/06/11 02:01:11.262, True, 0.995, 0.143664
2023/06/11 02:01:11.758, True, 0.674, 0.141146
2023/06/11 02:01:12.262, True, 0.664, 0.142290
2023/06/11 02:01:12.765, True, 0.663, 0.139925
2023/06/11 02:01:13.270, True, 0.663, 0.140002
2023/06/11 02:01:13.766, True, 0.674, 0.141909
2023/06/11 02:01:14.270, True, 0.663, 0.143664
2023/06/11 02:01:14.774, True, 0.663, 0.142443
2023/06/11 02:01:15.270, True, 0.674, 0.142824
2023/06/11 02:01:15.774, True, 0.663, 0.141375
2023/06/11 02:01:16.278, True, 0.663, 0.141375
2023/06/11 02:01:16.774, True, 0.675, 0.141985
2023/06/11 02:01:17.278, True, 0.662, 0.143740
2023/06/11 02:01:17.782, True, 0.663, 0.143816
2023/06/11 02:01:18.278, True, 1.011, 0.143740
2023/06/11 02:01:18.782, True, 0.663, 0.140307
2023/06/11 02:01:19.286, True, 0.663, 0.143664
2023/06/11 02:01:19.782, True, 0.674, 0.144961
2023/06/11 02:01:20.286, True, 0.663, 0.144503
2023/06/11 02:01:20.790, True, 0.663, 0.144503
2023/06/11 02:01:21.286, True, 0.675, 0.141375
2023/06/11 02:01:21.790, True, 0.993, 0.144198
2023/06/11 02:01:22.294, True, 0.663, 0.143435
2023/06/11 02:01:22.798, True, 0.663, 0.145800
2023/06/11 02:01:23.294, True, 0.674, 0.145495
2023/06/11 02:01:23.798, True, 0.664, 0.146105
2023/06/11 02:01:24.294, True, 0.673, 0.145800
2023/06/11 02:01:24.798, True, 0.663, 0.147250
2023/06/11 02:01:25.302, True, 0.663, 0.144884
2023/06/11 02:01:25.798, True, 1.011, 0.146181
2023/06/11 02:01:26.302, True, 0.663, 0.146410
2023/06/11 02:01:26.806, True, 0.663, 0.147784
2023/06/11 02:01:27.302, True, 0.674, 0.147784
2023/06/11 02:01:27.806, True, 0.663, 0.146639
2023/06/11 02:01:28.310, True, 0.663, 0.144808
2023/06/11 02:01:28.814, True, 0.664, 0.145647
2023/06/11 02:01:29.310, True, 0.674, 0.147707
2023/06/11 02:01:29.814, True, 0.663, 0.148547
2023/06/11 02:01:30.318, True, 0.995, 0.147402
2023/06/11 02:01:30.814, True, 0.674, 0.149462
2023/06/11 02:01:31.318, True, 0.663, 0.149081
2023/06/11 02:01:31.814, True, 0.674, 0.147860
2023/06/11 02:01:32.318, True, 0.664, 0.150301
2023/06/11 02:01:32.822, True, 0.663, 0.150530
2023/06/11 02:01:33.326, True, 0.663, 0.148775
2023/06/11 02:01:33.822, True, 1.011, 0.147250
2023/06/11 02:01:34.326, True, 0.663, 0.149844
2023/06/11 02:01:34.830, True, 0.663, 0.150530
2023/06/11 02:01:35.326, True, 0.674, 0.148547
2023/06/11 02:01:35.830, True, 0.663, 0.150835
2023/06/11 02:01:36.326, True, 0.674, 0.149233
2023/06/11 02:01:36.830, True, 0.663, 0.151064
2023/06/11 02:01:37.334, True, 0.663, 0.152514
2023/06/11 02:01:37.830, True, 0.674, 0.147555
2023/06/11 02:01:38.334, True, 0.663, 0.152590
2023/06/11 02:01:38.838, True, 0.664, 0.149004
2023/06/11 02:01:39.334, True, 1.009, 0.149538
2023/06/11 02:01:39.838, True, 0.664, 0.150301
2023/06/11 02:01:40.342, True, 0.662, 0.151064
2023/06/11 02:01:40.838, True, 0.674, 0.149538
2023/06/11 02:01:41.342, True, 0.663, 0.149538
2023/06/11 02:01:41.846, True, 0.663, 0.153124
2023/06/11 02:01:42.342, True, 0.674, 0.155032
2023/06/11 02:01:42.846, True, 0.663, 0.155947
2023/06/11 02:01:43.350, True, 0.995, 0.153353
2023/06/11 02:01:43.846, True, 0.674, 0.149767
2023/06/11 02:01:44.350, True, 0.663, 0.152361
2023/06/11 02:01:44.854, True, 0.663, 0.152361
2023/06/11 02:01:45.350, True, 0.674, 0.154345
2023/06/11 02:01:45.854, True, 0.663, 0.153201
2023/06/11 02:01:46.358, True, 0.663, 0.153124
2023/06/11 02:01:46.853, True, 0.674, 0.153201
2023/06/11 02:01:47.358, True, 0.663, 0.154192
2023/06/11 02:01:47.862, True, 0.995, 0.158465
2023/06/11 02:01:48.358, True, 0.674, 0.153506
2023/06/11 02:01:48.862, True, 0.663, 0.154879
2023/06/11 02:01:49.365, True, 0.664, 0.155718
2023/06/11 02:01:49.862, True, 0.673, 0.156100
2023/06/11 02:01:50.366, True, 0.663, 0.155795
2023/06/11 02:01:50.870, True, 0.663, 0.154116
2023/06/11 02:01:51.366, True, 0.674, 0.156481
2023/06/11 02:01:51.870, True, 0.663, 0.155108
2023/06/11 02:01:52.373, True, 0.663, 0.153429
2023/06/11 02:01:52.870, True, 0.674, 0.155718
2023/06/11 02:01:53.374, True, 0.664, 0.154498
2023/06/11 02:01:53.878, True, 0.662, 0.155108
2023/06/11 02:01:54.374, True, 0.674, 0.156634
2023/06/11 02:01:54.878, True, 0.663, 0.156329
2023/06/11 02:01:55.382, True, 0.663, 0.157855
2023/06/11 02:01:55.878, True, 0.674, 0.156023
2023/06/11 02:01:56.382, True, 0.995, 0.158694
2023/06/11 02:01:56.886, True, 0.663, 0.152895
2023/06/11 02:01:57.382, True, 0.674, 0.156710
2023/06/11 02:01:57.886, True, 0.663, 0.154726
2023/06/11 02:01:58.390, True, 0.663, 0.157549
2023/06/11 02:01:58.886, True, 0.674, 0.154879
2023/06/11 02:01:59.390, True, 0.663, 0.155108
2023/06/11 02:01:59.886, True, 0.674, 0.154650
2023/06/11 02:02:00.390, True, 0.664, 0.154421
2023/06/11 02:02:00.894, True, 0.662, 0.156023
2023/06/11 02:02:01.390, True, 0.674, 0.157397
2023/06/11 02:02:01.894, True, 0.664, 0.156481
2023/06/11 02:02:02.398, True, 0.663, 0.156023
2023/06/11 02:02:02.894, True, 0.674, 0.156634
2023/06/11 02:02:03.398, True, 0.996, 0.154345
2023/06/11 02:02:03.902, True, 0.663, 0.154116
2023/06/11 02:02:04.398, True, 0.674, 0.155032
2023/06/11 02:02:04.902, True, 0.664, 0.156405
2023/06/11 02:02:05.406, True, 0.662, 0.158923
2023/06/11 02:02:05.902, True, 0.674, 0.154879
2023/06/11 02:02:06.406, True, 0.664, 0.157168
2023/06/11 02:02:06.910, True, 0.662, 0.156558
2023/06/11 02:02:07.405, True, 1.011, 0.155947
2023/06/11 02:02:07.910, True, 0.664, 0.155489
2023/06/11 02:02:08.414, True, 0.662, 0.156023
2023/06/11 02:02:08.909, True, 0.674, 0.156329
2023/06/11 02:02:09.414, True, 0.663, 0.154955
2023/06/11 02:02:09.918, True, 0.664, 0.155642
2023/06/11 02:02:10.414, True, 0.673, 0.155947
2023/06/11 02:02:10.918, True, 0.663, 0.155947
2023/06/11 02:02:11.422, True, 0.663, 0.156786
2023/06/11 02:02:11.926, True, 0.663, 0.157321
2023/06/11 02:02:12.422, True, 0.674, 0.155413
2023/06/11 02:02:12.925, True, 0.663, 0.156863
2023/06/11 02:02:13.430, True, 0.664, 0.156329
2023/06/11 02:02:13.926, True, 0.673, 0.158312
2023/06/11 02:02:14.429, True, 0.997, 0.157397
2023/06/11 02:02:14.934, True, 0.662, 0.158923
2023/06/11 02:02:15.430, True, 0.674, 0.155566
2023/06/11 02:02:15.934, True, 0.663, 0.155947
2023/06/11 02:02:16.438, True, 0.663, 0.157549
2023/06/11 02:02:16.942, True, 0.663, 0.154574
2023/06/11 02:02:17.438, True, 0.674, 0.156405
2023/06/11 02:02:17.941, True, 0.663, 0.161212
2023/06/11 02:02:18.445, True, 0.663, 0.157092
2023/06/11 02:02:18.942, True, 0.674, 0.156634
2023/06/11 02:02:19.445, True, 0.663, 0.155642
2023/06/11 02:02:19.949, True, 0.663, 0.157931
2023/06/11 02:02:20.446, True, 0.675, 0.154498
2023/06/11 02:02:20.949, True, 0.663, 0.155261
2023/06/11 02:02:21.445, True, 0.673, 0.157092
2023/06/11 02:02:21.949, True, 0.994, 0.157321
2023/06/11 02:02:22.454, True, 0.664, 0.157549
2023/06/11 02:02:22.950, True, 0.674, 0.159991
2023/06/11 02:02:23.453, True, 0.663, 0.158083
2023/06/11 02:02:23.957, True, 0.663, 0.157244
2023/06/11 02:02:24.454, True, 0.674, 0.154803
2023/06/11 02:02:24.957, True, 0.662, 0.156252
2023/06/11 02:02:25.462, True, 0.664, 0.157397
2023/06/11 02:02:25.958, True, 0.674, 0.157778
2023/06/11 02:02:26.462, True, 0.663, 0.156329
2023/06/11 02:02:26.966, True, 0.662, 0.157168
2023/06/11 02:02:27.462, True, 0.674, 0.155184
2023/06/11 02:02:27.965, True, 0.664, 0.158999
2023/06/11 02:02:28.470, True, 0.663, 0.158160
2023/06/11 02:02:28.974, True, 0.993, 0.158389
2023/06/11 02:02:29.470, True, 0.674, 0.157626
2023/06/11 02:02:29.974, True, 0.663, 0.156176
2023/06/11 02:02:30.478, True, 0.663, 0.156405
2023/06/11 02:02:30.974, True, 0.674, 0.157168
2023/06/11 02:02:31.478, True, 0.663, 0.157931
2023/06/11 02:02:31.982, True, 0.663, 0.157931
2023/06/11 02:02:32.486, True, 0.663, 0.156100
2023/06/11 02:02:32.982, True, 0.674, 0.157168
2023/06/11 02:02:33.486, True, 0.663, 0.157473
2023/06/11 02:02:33.990, True, 0.663, 0.156863
2023/06/11 02:02:34.486, True, 0.674, 0.155718
2023/06/11 02:02:34.990, True, 0.995, 0.156481
2023/06/11 02:02:35.494, True, 0.663, 0.158999
2023/06/11 02:02:35.990, True, 0.674, 0.156100
2023/06/11 02:02:36.494, True, 0.663, 0.156863
2023/06/11 02:02:36.998, True, 0.664, 0.157626
2023/06/11 02:02:37.494, True, 0.674, 0.155871
2023/06/11 02:02:37.998, True, 0.663, 0.156863
2023/06/11 02:02:38.502, True, 0.663, 0.156405
2023/06/11 02:02:38.998, True, 0.674, 0.156939
2023/06/11 02:02:39.502, True, 0.664, 0.156329
2023/06/11 02:02:40.006, True, 0.663, 0.157855
2023/06/11 02:02:40.510, True, 0.995, 0.157931
2023/06/11 02:02:41.006, True, 0.673, 0.157244
2023/06/11 02:02:41.510, True, 0.663, 0.155871
2023/06/11 02:02:42.014, True, 0.663, 0.156023
2023/06/11 02:02:42.510, True, 0.674, 0.156786
2023/06/11 02:02:43.014, True, 0.663, 0.157549
2023/06/11 02:02:43.518, True, 0.663, 0.157397
2023/06/11 02:02:44.014, True, 0.674, 0.158083
2023/06/11 02:02:44.518, True, 0.663, 0.158083
2023/06/11 02:02:45.022, True, 0.663, 0.158541
2023/06/11 02:02:45.518, True, 1.012, 0.156634
2023/06/11 02:02:46.022, True, 0.662, 0.155947
2023/06/11 02:02:46.526, True, 0.663, 0.156634
2023/06/11 02:02:47.022, True, 0.674, 0.158618
2023/06/11 02:02:47.526, True, 0.663, 0.157702
2023/06/11 02:02:48.030, True, 0.663, 0.157015
2023/06/11 02:02:48.526, True, 0.674, 0.157473
2023/06/11 02:02:49.030, True, 0.663, 0.155718
2023/06/11 02:02:49.534, True, 0.663, 0.158236
2023/06/11 02:02:50.030, True, 0.674, 0.157244
2023/06/11 02:02:50.534, True, 0.995, 0.157015
2023/06/11 02:02:51.038, True, 0.663, 0.158236
2023/06/11 02:02:51.534, True, 0.674, 0.156939
2023/06/11 02:02:52.038, True, 0.663, 0.155642
2023/06/11 02:02:52.542, True, 0.663, 0.154498
2023/06/11 02:02:53.038, True, 0.674, 0.155795
2023/06/11 02:02:53.542, True, 0.663, 0.155489
2023/06/11 02:02:54.046, True, 0.663, 0.157168
2023/06/11 02:02:54.550, True, 0.663, 0.155184
2023/06/11 02:02:55.046, True, 0.674, 0.157549
2023/06/11 02:02:55.550, True, 0.663, 0.157397
2023/06/11 02:02:56.054, True, 0.663, 0.156558
2023/06/11 02:02:56.550, True, 0.674, 0.155795
2023/06/11 02:02:57.054, True, 0.663, 0.156786
2023/06/11 02:02:57.558, True, 0.663, 0.157321
2023/06/11 02:02:58.054, True, 1.011, 0.155871
2023/06/11 02:02:58.558, True, 0.663, 0.158389
2023/06/11 02:02:59.054, True, 0.674, 0.156100
2023/06/11 02:02:59.558, True, 0.663, 0.157092
2023/06/11 02:03:00.062, True, 0.664, 0.158465
2023/06/11 02:03:00.558, True, 0.674, 0.158389
2023/06/11 02:03:01.062, True, 0.664, 0.154955
2023/06/11 02:03:01.566, True, 0.663, 0.156863
2023/06/11 02:03:02.062, True, 0.674, 0.156558
2023/06/11 02:03:02.566, True, 0.664, 0.156405
2023/06/11 02:03:03.070, True, 0.663, 0.158312
2023/06/11 02:03:03.566, True, 1.010, 0.157321
2023/06/11 02:03:04.070, True, 0.663, 0.156252
2023/06/11 02:03:04.574, True, 0.663, 0.155871
2023/06/11 02:03:05.078, True, 0.663, 0.154421
2023/06/11 02:03:05.574, True, 0.674, 0.156405
2023/06/11 02:03:06.078, True, 0.663, 0.155642
2023/06/11 02:03:06.582, True, 0.663, 0.156634
2023/06/11 02:03:07.078, True, 0.674, 0.156710
2023/06/11 02:03:07.582, True, 0.663, 0.157244
2023/06/11 02:03:08.086, True, 0.995, 0.156252
2023/06/11 02:03:08.582, True, 0.674, 0.157855
2023/06/11 02:03:09.086, True, 0.663, 0.156176
2023/06/11 02:03:09.590, True, 0.663, 0.158160
2023/06/11 02:03:10.086, True, 0.674, 0.156558
2023/06/11 02:03:10.590, True, 0.663, 0.154879
2023/06/11 02:03:11.094, True, 0.663, 0.160906
2023/06/11 02:03:11.590, True, 0.674, 0.155871
2023/06/11 02:03:12.094, True, 0.663, 0.155871
2023/06/11 02:03:12.598, True, 0.663, 0.155718
2023/06/11 02:03:13.094, True, 0.675, 0.156023
2023/06/11 02:03:13.598, True, 0.662, 0.154803
2023/06/11 02:03:14.102, True, 0.664, 0.157702
2023/06/11 02:03:14.598, True, 0.673, 0.159152
2023/06/11 02:03:15.102, True, 0.663, 0.156481
2023/06/11 02:03:15.606, True, 0.663, 0.157244
2023/06/11 02:03:16.102, True, 0.674, 0.157321
2023/06/11 02:03:16.605, True, 0.995, 0.155261
2023/06/11 02:03:17.110, True, 0.663, 0.155108
2023/06/11 02:03:17.606, True, 0.674, 0.156634
2023/06/11 02:03:18.109, True, 0.663, 0.155261
2023/06/11 02:03:18.614, True, 0.663, 0.154803
2023/06/11 02:03:19.110, True, 0.674, 0.155184
2023/06/11 02:03:19.614, True, 0.663, 0.155489
2023/06/11 02:03:20.117, True, 0.663, 0.154269
2023/06/11 02:03:20.614, True, 0.675, 0.156710
2023/06/11 02:03:21.118, True, 0.662, 0.155032
2023/06/11 02:03:21.622, True, 0.664, 0.153887
2023/06/11 02:03:22.117, True, 0.673, 0.156863
2023/06/11 02:03:22.622, True, 0.663, 0.155947
2023/06/11 02:03:23.126, True, 0.664, 0.156405
2023/06/11 02:03:23.621, True, 0.673, 0.153658
2023/06/11 02:03:24.126, True, 0.663, 0.155947
2023/06/11 02:03:24.630, True, 0.663, 0.155795
2023/06/11 02:03:25.134, True, 0.663, 0.156100
2023/06/11 02:03:25.629, True, 0.674, 0.155261
2023/06/11 02:03:26.134, True, 0.664, 0.154879
2023/06/11 02:03:26.630, True, 1.010, 0.156329
2023/06/11 02:03:27.134, True, 0.663, 0.153735
2023/06/11 02:03:27.638, True, 0.663, 0.155337
2023/06/11 02:03:28.141, True, 0.663, 0.155566
2023/06/11 02:03:28.638, True, 0.674, 0.156786
2023/06/11 02:03:29.142, True, 0.663, 0.153506
2023/06/11 02:03:29.646, True, 0.663, 0.156634
2023/06/11 02:03:30.141, True, 0.674, 0.155261
2023/06/11 02:03:30.646, True, 0.663, 0.158160
2023/06/11 02:03:31.149, True, 0.663, 0.155718
2023/06/11 02:03:31.646, True, 0.674, 0.158923
2023/06/11 02:03:32.149, True, 0.663, 0.156329
2023/06/11 02:03:32.654, True, 0.663, 0.156329
2023/06/11 02:03:33.150, True, 0.674, 0.155413
2023/06/11 02:03:33.654, True, 0.663, 0.155947
2023/06/11 02:03:34.158, True, 0.664, 0.155337
2023/06/11 02:03:34.654, True, 0.673, 0.156634
2023/06/11 02:03:35.158, True, 0.663, 0.153735
2023/06/11 02:03:35.654, True, 0.674, 0.154574
2023/06/11 02:03:36.158, True, 0.663, 0.156634
2023/06/11 02:03:36.662, True, 0.663, 0.157626
2023/06/11 02:03:37.158, True, 0.674, 0.155032
2023/06/11 02:03:37.662, True, 0.663, 0.158465
2023/06/11 02:03:38.166, True, 0.663, 0.156558
2023/06/11 02:03:38.662, True, 0.674, 0.154116
2023/06/11 02:03:39.165, True, 0.664, 0.153887
2023/06/11 02:03:39.662, True, 0.673, 0.154726
2023/06/11 02:03:40.166, True, 0.663, 0.155718
2023/06/11 02:03:40.670, True, 0.663, 0.156252
2023/06/11 02:03:41.165, True, 0.674, 0.156176
2023/06/11 02:03:41.670, True, 0.664, 0.154650
2023/06/11 02:03:42.174, True, 0.663, 0.156329
2023/06/11 02:03:42.670, True, 0.674, 0.155718
2023/06/11 02:03:43.174, True, 0.995, 0.157321
2023/06/11 02:03:43.678, True, 0.663, 0.158083
2023/06/11 02:03:44.174, True, 0.674, 0.156558
2023/06/11 02:03:44.678, True, 0.663, 0.155261
2023/06/11 02:03:45.181, True, 0.664, 0.155108
2023/06/11 02:03:45.686, True, 0.663, 0.157626
2023/06/11 02:03:46.182, True, 0.674, 0.154116
2023/06/11 02:03:46.685, True, 0.663, 0.150301
2023/06/11 02:03:47.189, True, 0.663, 0.155489
2023/06/11 02:03:47.686, True, 0.674, 0.159304
2023/06/11 02:03:48.189, True, 0.663, 0.154116
2023/06/11 02:03:48.693, True, 0.663, 0.156329
2023/06/11 02:03:49.189, True, 0.674, 0.154879
2023/06/11 02:03:49.694, True, 0.663, 0.154498
2023/06/11 02:03:50.197, True, 0.663, 0.154803
2023/06/11 02:03:50.694, True, 0.674, 0.156786
2023/06/11 02:03:51.197, True, 0.664, 0.155947
2023/06/11 02:03:51.702, True, 0.662, 0.156481
2023/06/11 02:03:52.197, True, 0.674, 0.154421
2023/06/11 02:03:52.702, True, 0.663, 0.154726
2023/06/11 02:03:53.206, True, 0.663, 0.156329
2023/06/11 02:03:53.702, True, 0.675, 0.157321
2023/06/11 02:03:54.206, True, 0.662, 0.154269
2023/06/11 02:03:54.710, True, 0.995, 0.157168
2023/06/11 02:03:55.206, True, 0.675, 0.154421
2023/06/11 02:03:55.710, True, 0.662, 0.155871
2023/06/11 02:03:56.205, True, 0.674, 0.154345
2023/06/11 02:03:56.709, True, 0.664, 0.153658
2023/06/11 02:03:57.213, True, 0.663, 0.153658
2023/06/11 02:03:57.717, True, 0.662, 0.156863
2023/06/11 02:03:58.213, True, 0.674, 0.155261
2023/06/11 02:03:58.718, True, 0.663, 0.153048
2023/06/11 02:03:59.222, True, 0.664, 0.153887
2023/06/11 02:03:59.718, True, 0.673, 0.154879
2023/06/11 02:04:00.221, True, 0.664, 0.155108
2023/06/11 02:04:00.726, True, 0.664, 0.157092
2023/06/11 02:04:01.221, True, 0.673, 0.154498
2023/06/11 02:04:01.726, True, 0.663, 0.153277
2023/06/11 02:04:02.230, True, 0.663, 0.152972
2023/06/11 02:04:02.726, True, 1.011, 0.153506
2023/06/11 02:04:03.230, True, 0.663, 0.156023
2023/06/11 02:04:03.734, True, 0.663, 0.154040
2023/06/11 02:04:04.230, True, 0.675, 0.154879
2023/06/11 02:04:04.734, True, 0.662, 0.153429
2023/06/11 02:04:05.230, True, 0.675, 0.151751
2023/06/11 02:04:05.734, True, 0.662, 0.155261
2023/06/11 02:04:06.238, True, 0.663, 0.153658
2023/06/11 02:04:06.734, True, 0.674, 0.154040
2023/06/11 02:04:07.238, True, 0.663, 0.156634
2023/06/11 02:04:07.742, True, 0.663, 0.155184
2023/06/11 02:04:08.238, True, 1.011, 0.153887
2023/06/11 02:04:08.742, True, 0.663, 0.154345
2023/06/11 02:04:09.246, True, 0.332, 0.156329
2023/06/11 02:04:09.742, True, 0.673, 0.154421